Location: ??????
(55.4348°N, 39.2112°E)
Time: 02:42:23
(UTC+00:00)

ALOS - Pass Details

Date: 14 April 2024
Orbit: 674 x 675 km, 98.0° (Epoch: 18 May)

Event Time Altitude Azimuth Distance (km) Brightness Sun altitude
Rises 01:37:52 0° 10° (N) 3,049 6.2 -6.4°
Reaches altitude 10° 01:40:20 10° 359° (N) 2,129 5.2 -6.1°
Maximum altitude 01:44:19 29° 300° (WNW) 1,243 3.3 -5.6°
Drops below altitude 10° 01:48:17 10° 241° (WSW) 2,115 4.1 -5.1°
Enters shadow 01:49:17 - 236° (SW) 2,476 4.5 -5.0°
